Regional Weather Roundup
Issued by NWS

Home | Current Version | Previous Version | Graphics & Text | Print | Product List | Glossary On
Versions: 1 2 3 4 5 6 7 8 9 10 11 12 13 14 15 16 17 18 19 20 21 22 23 24 25 26 27 28 29 30 31 32 33 34 35 36 37 38 39 40 41 42 43 44 45 46 47 48 49 50
000
ASUS44 KJAN 201603
RWRMS

MISSISSIPPI HOURLY WEATHER ROUNDUP
NATIONAL WEATHER SERVICE JACKSON MS
1000 AM CST SAT DEC 20 2014

NOTE: "FAIR: INDICATES FEW OR NO CLOUDS BELOW 12,000 FEET WITH NO
SIGNIFICANT WEATHER AND/OR OBSTRUCTIONS TO VISIBILITY.

MSZ001>002-007>008-010>013-018>021-025>028-034>036-201700-
NORTHWEST MISSISSIPPI

CITY           SKY/WX    TMP DP  RH WIND       PRES   REMARKS
CLARKSDALE     PTSUNNY   41  36  81 CALM      30.30R
CLEVELAND      FAIR      44  38  78 NE7       30.28R
GREENWOOD      SUNNY     46  36  68 NE5       30.28R
GREENVILLE     SUNNY     45  37  73 NE8       30.27R
GRENADA        FAIR      43  36  75 CALM      30.29R
OLIVE BRANCH   PTSUNNY   39  34  81 E6        30.29R WCI  35
OXFORD         FAIR      41  32  70 E7        30.29S
TUNICA         CLOUDY    41  34  75 E7        30.30S
$$

MSZ003>006-009-014>017-022>024-029>033-037>039-201700-
NORTHEAST MISSISSIPPI

CITY           SKY/WX    TMP DP  RH WIND       PRES   REMARKS
COLUMBUS AFB   SUNNY     44  36  72 NE6       30.27S
CORINTH        FAIR      43  30  61 E6        30.28R
GOLDN TRIANGLE SUNNY     45  37  76 N5        30.27R
STARKVILLE     FAIR      43  37  81 N3        30.27S
TUPELO         SUNNY     43  33  68 E6        30.28S
$$

MSZ040-058-201700-
CENTRAL MISSISSIPPI

CITY           SKY/WX    TMP DP  RH WIND       PRES   REMARKS
JACKSON INTL   PTSUNNY   46  41  82 N8        30.24R
JACKSON HAWKNS SUNNY     47  40  76 NE9       30.24R
MERIDIAN KEY   CLOUDY    46  41  82 N8        30.23S
MERIDIAN NAS   CLOUDY    45  40  82 NE6       30.25R
RAYMOND        FAIR      46  43  87 N7        30.24S
VICKSBURG      MOSUNNY   47  42  83 NE7       30.26R
$$

MSZ059>079-201700-
SOUTH MISSISSIPPI

CITY           SKY/WX    TMP DP  RH WIND       PRES   REMARKS
HATTIESBURG    CLOUDY    48  44  86 N8        30.21R
MCCOMB         CLOUDY    46  43  89 NE9       30.20R
NATCHEZ        MOSUNNY   46  43  87 NE10G16   30.23R
PINE BELT      CLOUDY    45  41  87 N9        30.22R
$$

MSZ080>082-201700-
COASTAL MISSISSIPPI

CITY           SKY/WX    TMP DP  RH WIND       PRES   REMARKS
BAY ST LOUIS   CLOUDY    46  43  87 N12G21    30.17
BILOXI         CLOUDY    50  50 100 NE13      30.15S
PASCAGOULA     CLOUDY    50  48  93 NE9       30.16R
GULFPORT       CLOUDY    50  47  89 N10       30.15R
$$



USA.gov is the U.S. government's official web portal to all federal, state and local government web resources and services.